Time,TemperatureF,DewpointF,PressureIn,WindDirection,WindDirectionDegrees,WindSpeedMPH,WindSpeedGustMPH,Humidity,HourlyPrecipIn,Conditions,Clouds,dailyrainin,SoftwareType,DateUTC
2013-11-09 08:25:00,47.3,26.5,30.23,NNE,28,0.0,0.0,44,0.00,,,0.00,Wunderground v.1.15,2013-11-09 15:25:00,
2013-11-09 08:30:00,48.2,26.7,30.23,NNE,28,0.0,0.0,43,0.00,,,0.00,Wunderground v.1.15,2013-11-09 15:30:00,
2013-11-09 08:40:00,49.9,25.9,30.24,ENE,59,0.0,0.0,39,0.00,,,0.00,Wunderground v.1.15,2013-11-09 15:40:00,
2013-11-09 08:45:00,50.6,25.9,30.24,NE,44,0.0,1.0,38,0.00,,,0.00,Wunderground v.1.15,2013-11-09 15:45:00,
2013-11-09 08:50:00,51.2,26.4,30.24,NE,44,0.0,1.0,38,0.00,,,0.00,Wunderground v.1.15,2013-11-09 15:50:00,
2013-11-09 09:00:00,52.3,26.1,30.24,NNW,348,1.0,1.0,36,0.00,,,0.00,Wunderground v.1.15,2013-11-09 16:00:00,
2013-11-09 09:05:00,52.5,25.6,30.24,NNW,338,1.0,2.0,35,0.00,,,0.00,Wunderground v.1.15,2013-11-09 16:05:00,
2013-11-09 09:10:00,52.8,25.9,30.24,North,355,2.0,2.0,35,0.00,,,0.00,Wunderground v.1.15,2013-11-09 16:10:00,
2013-11-09 09:15:00,53.3,25.6,30.24,North,1,2.0,2.0,34,0.00,,,0.00,Wunderground v.1.15,2013-11-09 16:15:00,
2013-11-09 09:25:00,54.4,25.9,30.24,NNE,25,2.0,4.0,33,0.00,,,0.00,Wunderground v.1.15,2013-11-09 16:25:00,
2013-11-09 09:30:00,54.8,25.5,30.24,North,3,3.0,5.0,32,0.00,,,0.00,Wunderground v.1.15,2013-11-09 16:30:00,
2013-11-09 09:40:00,55.4,26.0,30.24,North,1,3.0,6.0,32,0.00,,,0.00,Wunderground v.1.15,2013-11-09 16:40:00,
2013-11-09 09:45:00,56.0,25.8,30.24,NE,35,3.0,6.0,31,0.00,,,0.00,Wunderground v.1.15,2013-11-09 16:45:00,
2013-11-09 09:55:00,56.5,25.4,30.24,North,11,2.0,3.0,30,0.00,,,0.00,Wunderground v.1.15,2013-11-09 16:55:00,
2013-11-09 10:00:00,56.8,25.7,30.24,NNE,28,3.0,3.0,30,0.00,,,0.00,Wunderground v.1.15,2013-11-09 17:00:00,
2013-11-09 10:10:00,57.3,26.1,30.24,NW,307,2.0,2.0,30,0.00,,,0.00,Wunderground v.1.15,2013-11-09 17:10:00,
2013-11-09 10:15:00,57.7,26.4,30.23,NNE,12,2.0,3.0,30,0.00,,,0.00,Wunderground v.1.15,2013-11-09 17:15:00,
2013-11-09 10:25:00,58.4,26.2,30.23,NNE,21,2.0,3.0,29,0.00,,,0.00,Wunderground v.1.15,2013-11-09 17:25:00,
2013-11-09 10:30:00,58.9,26.7,30.23,NE,34,2.0,2.0,29,0.00,,,0.00,Wunderground v.1.15,2013-11-09 17:30:00,
2013-11-09 10:40:00,59.7,26.5,30.23,West,269,1.0,1.0,28,0.00,,,0.00,Wunderground v.1.15,2013-11-09 17:40:00,
2013-11-09 10:45:00,60.5,27.2,30.23,ENE,78,1.0,1.0,28,0.00,,,0.00,Wunderground v.1.15,2013-11-09 17:45:00,
2013-11-09 10:55:00,61.7,27.3,30.23,NNE,18,1.0,2.0,27,0.00,,,0.00,Wunderground v.1.15,2013-11-09 17:55:00,
2013-11-09 11:00:00,61.9,27.5,30.23,NE,49,1.0,1.0,27,0.00,,,0.00,Wunderground v.1.15,2013-11-09 18:00:00,
2013-11-09 11:10:00,62.2,27.8,30.23,SSE,167,1.0,1.0,27,0.00,,,0.00,Wunderground v.1.15,2013-11-09 18:10:00,
2013-11-09 11:15:00,63.2,28.6,30.22,East,84,1.0,2.0,27,0.00,,,0.00,Wunderground v.1.15,2013-11-09 18:15:00,
2013-11-09 11:25:00,63.6,28.1,30.22,SW,218,1.0,1.0,26,0.00,,,0.00,Wunderground v.1.15,2013-11-09 18:25:00,
2013-11-09 11:30:00,64.1,28.5,30.22,NNE,12,0.0,1.0,26,0.00,,,0.00,Wunderground v.1.15,2013-11-09 18:30:00,
2013-11-09 11:40:00,64.4,28.7,30.22,SSE,148,1.0,1.0,26,0.00,,,0.00,Wunderground v.1.15,2013-11-09 18:40:00,
2013-11-09 11:45:00,65.1,29.3,30.21,ENE,64,1.0,1.0,26,0.00,,,0.00,Wunderground v.1.15,2013-11-09 18:45:00,
2013-11-09 11:55:00,65.5,28.7,30.21,SE,136,2.0,2.0,25,0.00,,,0.00,Wunderground v.1.15,2013-11-09 18:55:00,
2013-11-09 12:00:00,65.7,28.9,30.21,ENE,61,1.0,1.0,25,0.00,,,0.00,Wunderground v.1.15,2013-11-09 19:00:00,
2013-11-09 12:10:00,66.5,28.6,30.20,NNE,33,1.0,1.0,24,0.00,,,0.00,Wunderground v.1.15,2013-11-09 19:10:00,
2013-11-09 12:15:00,67.0,29.0,30.20,ESE,117,1.0,1.0,24,0.00,,,0.00,Wunderground v.1.15,2013-11-09 19:15:00,
2013-11-09 12:25:00,67.5,29.4,30.19,NNW,337,1.0,2.0,24,0.00,,,0.00,Wunderground v.1.15,2013-11-09 19:25:00,
2013-11-09 12:30:00,67.7,28.5,30.19,NE,46,2.0,2.0,23,0.00,,,0.00,Wunderground v.1.15,2013-11-09 19:30:00,
2013-11-09 12:40:00,68.0,28.8,30.18,North,8,1.0,1.0,23,0.00,,,0.00,Wunderground v.1.15,2013-11-09 19:40:00,
2013-11-09 12:45:00,68.7,29.4,30.18,East,79,1.0,2.0,23,0.00,,,0.00,Wunderground v.1.15,2013-11-09 19:45:00,
2013-11-09 12:55:00,69.1,29.7,30.18,South,172,1.0,1.0,23,0.00,,,0.00,Wunderground v.1.15,2013-11-09 19:55:00,
2013-11-09 13:00:00,69.9,29.3,30.17,SE,126,0.0,1.0,22,0.00,,,0.00,Wunderground v.1.15,2013-11-09 20:00:00,
2013-11-09 13:10:00,70.2,29.5,30.17,North,11,1.0,3.0,22,0.00,,,0.00,Wunderground v.1.15,2013-11-09 20:10:00,
2013-11-09 13:15:00,70.2,28.4,30.17,ENE,67,1.0,3.0,21,0.00,,,0.00,Wunderground v.1.15,2013-11-09 20:15:00,
2013-11-09 13:25:00,70.4,28.6,30.16,NW,308,1.0,1.0,21,0.00,,,0.00,Wunderground v.1.15,2013-11-09 20:25:00,
2013-11-09 13:30:00,71.2,28.0,30.16,NNW,333,1.0,3.0,20,0.00,,,0.00,Wunderground v.1.15,2013-11-09 20:30:00,
2013-11-09 13:40:00,71.6,27.1,30.15,ENE,78,1.0,1.0,19,0.00,,,0.00,Wunderground v.1.15,2013-11-09 20:40:00,
2013-11-09 13:45:00,71.7,28.5,30.15,NE,47,1.0,2.0,20,0.00,,,0.00,Wunderground v.1.15,2013-11-09 20:45:00,
2013-11-09 13:55:00,71.9,27.4,30.15,SW,215,1.0,3.0,19,0.00,,,0.00,Wunderground v.1.15,2013-11-09 20:55:00,
2013-11-09 14:00:00,72.8,29.4,30.15,ENE,58,1.0,1.0,20,0.00,,,0.00,Wunderground v.1.15,2013-11-09 21:00:00,
2013-11-09 14:10:00,72.4,27.8,30.15,ESE,111,1.0,1.0,19,0.00,,,0.00,Wunderground v.1.15,2013-11-09 21:10:00,
2013-11-09 14:15:00,72.2,27.6,30.14,SE,132,1.0,2.0,19,0.00,,,0.00,Wunderground v.1.15,2013-11-09 21:15:00,
2013-11-09 14:25:00,72.8,29.4,30.14,ESE,113,1.0,1.0,20,0.00,,,0.00,Wunderground v.1.15,2013-11-09 21:25:00,
2013-11-09 14:30:00,72.9,29.4,30.14,ESE,122,1.0,1.0,20,0.00,,,0.00,Wunderground v.1.15,2013-11-09 21:30:00,
2013-11-09 14:40:00,72.4,27.8,30.14,WNW,288,1.0,2.0,19,0.00,,,0.00,Wunderground v.1.15,2013-11-09 21:40:00,
2013-11-09 14:45:00,73.0,28.3,30.14,NNE,32,1.0,2.0,19,0.00,,,0.00,Wunderground v.1.15,2013-11-09 21:45:00,
2013-11-09 14:55:00,73.3,28.5,30.14,SSW,212,1.0,1.0,19,0.00,,,0.00,Wunderground v.1.15,2013-11-09 21:55:00,
2013-11-09 15:00:00,73.5,28.7,30.14,ENE,70,0.0,0.0,19,0.00,,,0.00,Wunderground v.1.15,2013-11-09 22:00:00,
2013-11-09 15:10:00,73.6,28.8,30.14,SSW,210,1.0,1.0,19,0.00,,,0.00,Wunderground v.1.15,2013-11-09 22:10:00,
2013-11-09 15:15:00,73.6,28.8,30.14,SSE,156,1.0,1.0,19,0.00,,,0.00,Wunderground v.1.15,2013-11-09 22:15:00,
2013-11-09 15:25:00,73.6,28.8,30.14,ENE,58,0.0,1.0,19,0.00,,,0.00,Wunderground v.1.15,2013-11-09 22:25:00,
2013-11-09 15:30:00,73.4,28.6,30.14,North,11,1.0,1.0,19,0.00,,,0.00,Wunderground v.1.15,2013-11-09 22:30:00,
2013-11-09 15:40:00,73.0,28.3,30.14,NW,315,1.0,2.0,19,0.00,,,0.00,Wunderground v.1.15,2013-11-09 22:40:00,
2013-11-09 15:45:00,73.0,28.3,30.14,North,356,1.0,2.0,19,0.00,,,0.00,Wunderground v.1.15,2013-11-09 22:45:00,
2013-11-09 15:55:00,73.8,28.9,30.14,South,184,1.0,1.0,19,0.00,,,0.00,Wunderground v.1.15,2013-11-09 22:55:00,
2013-11-09 16:00:00,74.1,29.2,30.14,SSE,160,0.0,0.0,19,0.00,,,0.00,Wunderground v.1.15,2013-11-09 23:00:00,
2013-11-09 16:10:00,73.2,28.4,30.13,East,81,0.0,0.0,19,0.00,,,0.00,Wunderground v.1.15,2013-11-09 23:10:00,
2013-11-09 16:15:00,72.8,28.1,30.13,NE,39,0.0,0.0,19,0.00,,,0.00,Wunderground v.1.15,2013-11-09 23:15:00,
2013-11-09 16:25:00,71.8,28.5,30.14,NE,34,0.0,1.0,20,0.00,,,0.00,Wunderground v.1.15,2013-11-09 23:25:00,
2013-11-09 16:30:00,71.2,28.0,30.14,NNW,340,0.0,0.0,20,0.00,,,0.00,Wunderground v.1.15,2013-11-09 23:30:00,
2013-11-09 16:40:00,70.5,28.7,30.13,West,271,0.0,3.0,21,0.00,,,0.00,Wunderground v.1.15,2013-11-09 23:40:00,
2013-11-09 16:45:00,68.5,29.2,30.13,West,260,1.0,3.0,23,0.00,,,0.00,Wunderground v.1.15,2013-11-09 23:45:00,
2013-11-09 16:55:00,64.9,29.2,30.13,West,275,2.0,2.0,26,0.00,,,0.00,Wunderground v.1.15,2013-11-09 23:55:00,
2013-11-09 17:00:00,63.9,29.2,30.14,WNW,293,2.0,3.0,27,0.00,,,0.00,Wunderground v.1.15,2013-11-10 00:00:00,
2013-11-09 17:10:00,62.7,29.1,30.14,WNW,287,2.0,2.0,28,0.00,,,0.00,Wunderground v.1.15,2013-11-10 00:10:00,
2013-11-09 17:15:00,61.8,28.3,30.14,West,281,2.0,2.0,28,0.00,,,0.00,Wunderground v.1.15,2013-11-10 00:15:00,
2013-11-09 17:25:00,60.6,29.0,30.14,WNW,292,2.0,3.0,30,0.00,,,0.00,Wunderground v.1.15,2013-11-10 00:25:00,
2013-11-09 17:30:00,60.2,28.6,30.14,WNW,297,3.0,3.0,30,0.00,,,0.00,Wunderground v.1.15,2013-11-10 00:30:00,
2013-11-09 17:40:00,59.4,28.7,30.14,WNW,302,3.0,3.0,31,0.00,,,0.00,Wunderground v.1.15,2013-11-10 00:40:00,
2013-11-09 17:45:00,58.9,28.3,30.14,WNW,289,3.0,3.0,31,0.00,,,0.00,Wunderground v.1.15,2013-11-10 00:45:00,
2013-11-09 17:55:00,58.4,27.9,30.14,WNW,286,2.0,2.0,31,0.00,,,0.00,Wunderground v.1.15,2013-11-10 00:55:00,
2013-11-09 18:00:00,58.0,28.3,30.14,WNW,288,1.0,1.0,32,0.00,,,0.00,Wunderground v.1.15,2013-11-10 01:00:00,
2013-11-09 18:10:00,57.3,28.4,30.14,West,270,1.0,1.0,33,0.00,,,0.00,Wunderground v.1.15,2013-11-10 01:10:00,
2013-11-09 18:15:00,57.2,28.3,30.15,WNW,294,1.0,1.0,33,0.00,,,0.00,Wunderground v.1.15,2013-11-10 01:15:00,
2013-11-09 18:25:00,56.8,28.0,30.15,WNW,289,2.0,2.0,33,0.00,,,0.00,Wunderground v.1.15,2013-11-10 01:25:00,
2013-11-09 18:30:00,56.3,27.5,30.15,WNW,300,1.0,1.0,33,0.00,,,0.00,Wunderground v.1.15,2013-11-10 01:30:00,
2013-11-09 18:40:00,55.6,27.6,30.15,West,279,1.0,1.0,34,0.00,,,0.00,Wunderground v.1.15,2013-11-10 01:40:00,
2013-11-09 18:45:00,55.5,28.3,30.15,West,273,0.0,1.0,35,0.00,,,0.00,Wunderground v.1.15,2013-11-10 01:45:00,
2013-11-09 18:55:00,58.5,28.7,30.16,West,264,0.0,2.0,32,0.00,,,0.00,Wunderground v.1.15,2013-11-10 01:55:00,
2013-11-09 19:00:00,59.0,28.4,30.16,West,279,1.0,1.0,31,0.00,,,0.00,Wunderground v.1.15,2013-11-10 02:00:00,
2013-11-09 19:10:00,56.3,28.3,30.16,West,271,0.0,0.0,34,0.00,,,0.00,Wunderground v.1.15,2013-11-10 02:10:00,
2013-11-09 19:15:00,56.9,28.8,30.16,West,266,0.0,0.0,34,0.00,,,0.00,Wunderground v.1.15,2013-11-10 02:15:00,
2013-11-09 19:25:00,57.9,28.9,30.16,West,275,0.0,0.0,33,0.00,,,0.00,Wunderground v.1.15,2013-11-10 02:25:00,
2013-11-09 19:30:00,57.8,28.9,30.16,SSW,207,0.0,0.0,33,0.00,,,0.00,Wunderground v.1.15,2013-11-10 02:30:00,
2013-11-09 19:40:00,56.5,28.4,30.16,WNW,283,0.0,1.0,34,0.00,,,0.00,Wunderground v.1.15,2013-11-10 02:40:00,
2013-11-09 19:45:00,58.9,29.8,30.16,WSW,255,1.0,1.0,33,0.00,,,0.00,Wunderground v.1.15,2013-11-10 02:45:00,
2013-11-09 19:55:00,57.5,28.6,30.17,NE,38,1.0,1.0,33,0.00,,,0.00,Wunderground v.1.15,2013-11-10 02:55:00,
2013-11-09 20:00:00,56.9,28.1,30.17,NE,44,1.0,1.0,33,0.00,,,0.00,Wunderground v.1.15,2013-11-10 03:00:00,
2013-11-09 20:10:00,56.6,28.5,30.17,NW,316,0.0,0.0,34,0.00,,,0.00,Wunderground v.1.15,2013-11-10 03:10:00,
2013-11-09 20:15:00,56.7,28.6,30.17,NW,316,0.0,0.0,34,0.00,,,0.00,Wunderground v.1.15,2013-11-10 03:15:00,